FW4441 Weather Reports


Display with metric or nautical units.
time (UTC)temp
F
wind
direction
speed
MPH
gust
MPH
rain 1hr
in
rain 24hr
in
rain mn
in
humidity
%
barometer
mb
20200407221531 63 238 9.0 0.0 0.00 0.00 0.00 38 1.0
20200407220030 62 249 14.0 0.0 0.00 0.00 0.00 38 1.0
20200407214528 62 244 15.0 0.0 0.00 0.00 0.00 39 1.0
20200407213031 61 251 13.0 0.0 0.00 0.00 0.00 39 1.0
20200407211528 60 249 16.0 0.0 0.00 0.00 0.00 39 1.0
20200407210030 60 251 17.0 0.0 0.00 0.00 0.00 39 1.0
20200407204527 61 258 17.0 0.0 0.00 0.00 0.00 39 1.0
20200407203030 61 262 12.0 0.0 0.00 0.00 0.00 39 1.0
20200407201531 60 261 11.0 0.0 0.00 0.00 0.00 38 1.0
20200407200029 59 257 16.0 0.0 0.00 0.00 0.00 38 1.0
20200407194532 59 254 14.0 0.0 0.00 0.00 0.00 36 1.0
20200407193031 59 267 13.0 0.0 0.00 0.00 0.00 36 1.0
20200407191532 58 272 14.0 0.0 0.00 0.00 0.00 37 1.0
20200407190030 58 268 14.0 0.0 0.00 0.00 0.00 37 1.0
20200407184539 58 262 13.0 0.0 0.00 0.00 0.00 38 1.0
20200407183032 57 271 12.0 0.0 0.00 0.00 0.00 39 1.0
20200407181530 56 270 10.0 0.0 0.00 0.00 0.00 41 1.0
20200407180032 55 294 8.0 0.0 0.00 0.00 0.00 45 1.0
20200407173031 54 296 7.0 0.0 0.00 0.00 0.00 48 1.0
20200407171530 53 309 7.0 0.0 0.00 0.00 0.00 50 1.0
20200407170031 51 313 8.0 0.0 0.00 0.00 0.00 55 1.0
20200407164532 51 334 8.0 0.0 0.00 0.00 0.00 56 1.0
20200407163028 50 332 7.0 0.0 0.00 0.00 0.00 57 1.0
20200407161532 49 326 5.0 0.0 0.00 0.00 0.00 58 1.0
20200407160030 48 332 5.0 0.0 0.00 0.00 0.00 61 1.0
20200407154530 44 19 3.0 0.0 0.00 0.00 0.00 66 1.0
20200407153032 43 12 3.0 0.0 0.00 0.00 0.00 68 1.0
20200407150031 42 298 2.0 0.0 0.00 0.00 0.00 70 1.0
20200407144532 41 273 1.0 0.0 0.00 0.00 0.00 72 1.0
20200407143030 40 293 3.0 0.0 0.00 0.00 0.00 73 1.0
20200407141531 40 272 3.0 0.0 0.00 0.00 0.00 74 1.0
20200407140031 39 336 2.0 0.0 0.00 0.00 0.00 73 1.0
20200407134529 39 8 1.0 0.0 0.00 0.00 0.00 72 1.0
20200407133028 40 17 2.0 0.0 0.00 0.00 0.00 72 1.0
20200407131530 40 20 3.0 0.0 0.00 0.00 0.00 73 1.0
20200407130029 40 30 3.0 0.0 0.00 0.00 0.00 73 1.0
20200407124530 40 20 3.0 0.0 0.00 0.00 0.00 72 1.0
20200407123031 41 26 3.0 0.0 0.00 0.00 0.00 72 1.0
20200407121532 41 41 3.0 0.0 0.00 0.00 0.00 72 1.0
20200407120029 42 70 3.0 0.0 0.00 0.00 0.00 72 1.0
20200407114916 42 68 3.0 0.0 0.00 0.00 0.00 72 1.0
20200407113030 41 22 4.0 0.0 0.00 0.00 0.00 73 1.0
20200407111531 42 331 3.0 0.0 0.00 0.00 0.00 74 1.0
20200407110028 42 343 3.0 0.0 0.00 0.00 0.00 75 1.0
20200407104528 42 350 3.0 0.0 0.00 0.00 0.00 75 1.0
20200407103029 43 11 3.0 0.0 0.00 0.00 0.00 75 1.0
20200407101529 42 11 3.0 0.0 0.00 0.00 0.00 77 1.0
20200407100032 43 2 4.0 0.0 0.00 0.00 0.00 77 1.0
20200407094528 43 32 3.0 0.0 0.00 0.00 0.00 77 1.0
20200407093031 43 15 3.0 0.0 0.00 0.00 0.00 77 1.0
20200407090030 43 37 3.0 0.0 0.00 0.00 0.00 78 1.0
20200407084529 44 298 3.0 0.0 0.00 0.00 0.00 78 1.0
20200407083029 44 316 2.0 0.0 0.00 0.00 0.00 78 1.0
20200407081529 44 273 2.0 0.0 0.00 0.00 0.00 78 1.0
20200407080029 44 294 2.0 0.0 0.00 0.00 0.00 78 1.0
20200407074529 45 262 0.0 0.0 0.00 0.00 0.00 77 1.0
20200407073029 45 225 3.0 0.0 0.00 0.00 0.00 76 1.0
20200407071530 46 240 1.0 0.0 0.00 0.00 0.00 75 1.0
20200407070030 46 240 1.0 0.0 0.00 0.00 0.00 75 1.0
20200407064529 46 269 2.0 0.0 0.00 0.00 0.00 75 1.0
20200407063028 46 251 2.0 0.0 0.00 0.00 0.00 75 1.0
20200407061529 45 250 4.0 0.0 0.00 0.00 0.00 76 1.0
20200407060029 44 269 4.0 0.0 0.00 0.00 0.00 74 1.0
20200407054529 44 345 2.0 0.0 0.00 0.00 0.00 73 1.0
20200407053030 45 288 2.0 0.0 0.00 0.00 0.00 72 1.0
20200407051529 46 247 3.0 0.0 0.00 0.00 0.00 70 1.0
20200407050029 46 247 3.0 0.0 0.00 0.00 0.00 69 1.0
20200407044529 47 242 6.0 0.0 0.00 0.00 0.00 67 1.0
20200407043028 48 258 5.0 0.0 0.00 0.00 0.00 64 1.0
20200407041528 49 189 5.0 0.0 0.00 0.00 0.00 62 1.0
20200407040029 49 200 4.0 0.0 0.00 0.00 0.00 61 1.0
20200407034529 50 223 3.0 0.0 0.00 0.00 0.00 60 1.0
20200407033030 51 211 6.0 0.0 0.00 0.00 0.00 57 1.0
20200407031528 52 180 10.0 0.0 0.00 0.00 0.00 56 1.0
20200407030029 53 181 10.0 0.0 0.00 0.00 0.00 55 1.0
20200407024531 53 189 8.0 0.0 0.00 0.00 0.00 53 1.0
20200407023028 55 193 8.0 0.0 0.00 0.00 0.00 51 1.0
20200407021528 56 199 11.0 0.0 0.00 0.00 0.00 50 1.0
20200407020029 56 202 8.0 0.0 0.00 0.00 0.00 50 1.0
20200407014530 57 201 10.0 0.0 0.00 0.00 0.00 48 1.0
20200407013041 58 209 9.0 0.0 0.00 0.00 0.00 47 1.0
20200407011529 59 206 11.0 0.0 0.00 0.00 0.00 46 1.0
20200407010029 59 201 14.0 0.0 0.00 0.00 0.00 46 1.0
20200407004527 58 200 14.0 0.0 0.00 0.00 0.00 47 1.0
20200407003033 58 204 14.0 0.0 0.00 0.00 0.00 46 1.0
20200407001529 59 210 14.0 0.0 0.00 0.00 0.00 45 1.0
20200407000111 60 205 15.0 0.0 0.00 0.00 0.00 44 1.0
20200406234528 61 219 12.0 0.0 0.00 0.00 0.00 44 1.0
20200406233031 62 211 12.0 0.0 0.00 0.00 0.00 44 1.0
20200406231531 61 215 11.0 0.0 0.00 0.00 0.00 45 1.0
20200406230029 62 239 10.0 0.0 0.00 0.00 0.00 45 1.0
20200406224530 60 238 11.0 0.0 0.00 0.00 0.00 48 1.0
20200406223032 58 248 10.0 0.0 0.00 0.00 0.00 47 1.0